Simultaneous Nadir Overpasses (SNOs) Predictions

Prediction of SNOs between LANDSAT-8 and NOAA-19 Satellite Orbit:

Table of predicted SNOs for the next 14.0 days since TLE Epoch: 9/17/2016
Index Date (LANDSAT-8) Time (LANDSAT-8) Lat,Lon (LANDSAT-8) SZA (LANDSAT-8 ) Date (NOAA-19) Time (NOAA-19) Lat,Lon (NOAA-19) SZA (NOAA-19 ) Distance(km) Time Diff (sec)
1 09/17/2016 05:11:58 75.14, 107.93 73.10 09/17/2016 05:10:45 75.16, 107.80 73.10 3.99 73
2 09/17/2016 06:01:27 -75.07, -84.64 106.97 09/17/2016 06:01:48 -75.07, -84.69 106.97 1.39 21
3 09/19/2016 10:45:44 -75.10,-155.62 106.08 09/19/2016 10:44:48 -75.11,-155.53 106.07 3.14 56
4 09/19/2016 11:35:10 75.08, 11.96 73.91 09/19/2016 11:35:44 75.06, 11.91 73.90 2.66 34
5 09/21/2016 16:19:27 75.11, -59.03 74.80 09/21/2016 16:18:45 75.14, -59.04 74.84 4.00 42
6 09/21/2016 17:08:56 -75.03, 108.41 105.26 09/21/2016 17:09:47 -75.03, 108.53 105.25 3.38 51
7 09/23/2016 21:53:12 -75.11, 37.55 104.32 09/23/2016 21:52:48 -75.13, 37.52 104.30 2.61 24
8 09/23/2016 22:42:39 75.03,-155.02 75.61 09/23/2016 22:43:44 75.04,-154.94 75.64 2.49 65
9 09/26/2016 03:26:55 75.10, 134.10 76.55 09/26/2016 03:26:45 75.13, 134.09 76.58 3.22 10
10 09/26/2016 04:16:31 -74.68, -59.35 103.89 09/26/2016 04:17:39 -74.68, -57.34 103.80 59.00 68
11 09/28/2016 08:11:03 75.57, 64.32 77.93 09/28/2016 08:09:55 75.64, 61.77 77.89 70.81 68
12 09/28/2016 09:00:40 -75.11,-129.33 102.57 09/28/2016 09:00:47 -75.12,-129.34 102.55 1.89 7
13 09/30/2016 13:44:56 -75.17,
